Total_Precipitation_Accumulation
0.49 0.35 0.35 0.43 0.41 0.43 0.57 0.63 0.58 0.36 0.29 0.31 0.29 0.28 0.26 0.25 0.23 0.18 0.15 0.16 0.21 0.24 0.22 0.25 0.29 0.31 0.38 0.44 0.46 0.58 0.69 0.68 0.64 0.66 0.67 0.66 0.70 0.73 0.74 0.78 0.81 0.79 0.78 0.81
0.56 0.35 0.32 0.34 0.30 0.31 0.37 0.37 0.35 0.28 0.30 0.30 0.27 0.24 0.21 0.22 0.26 0.24 0.21 0.21 0.23 0.28 0.29 0.29 0.35 0.43 0.51 0.58 0.61 0.66 0.77 0.81 0.72 0.65 0.65 0.67 0.67 0.68 0.71 0.74 0.75 0.74 0.73 0.73
0.79 0.43 0.57 0.60 0.38 0.34 0.35 0.37 0.35 0.36 0.34 0.28 0.26 0.24 0.23 0.23 0.24 0.26 0.24 0.23 0.25 0.29 0.34 0.36 0.41 0.55 0.64 0.64 0.65 0.70 0.74 0.82 0.83 0.71 0.65 0.66 0.65 0.63 0.63 0.63 0.65 0.65 0.65 0.66
1.09 0.81 1.03 0.55 0.27 0.29 0.30 0.33 0.34 0.34 0.32 0.29 0.29 0.26 0.23 0.22 0.23 0.26 0.27 0.29 0.30 0.33 0.35 0.40 0.47 0.57 0.65 0.69 0.72 0.76 0.76 0.74 0.77 0.70 0.61 0.61 0.64 0.61 0.55 0.54 0.57 0.58 0.58 0.58
1.34 1.04 0.61 0.24 0.18 0.27 0.34 0.38 0.37 0.35 0.31 0.28 0.26 0.22 0.23 0.25 0.24 0.27 0.29 0.28 0.28 0.29 0.32 0.37 0.43 0.50 0.54 0.59 0.64 0.69 0.70 0.65 0.65 0.60 0.57 0.59 0.63 0.59 0.53 0.50 0.51 0.52 0.53 0.56
1.47 1.17 0.59 0.24 0.14 0.19 0.32 0.43 0.33 0.31 0.31 0.31 0.32 0.46 0.36 0.30 0.26 0.24 0.23 0.22 0.22 0.24 0.24 0.27 0.33 0.36 0.39 0.43 0.48 0.54 0.57 0.57 0.62 0.56 0.52 0.56 0.60 0.56 0.52 0.50 0.52 0.53 0.55 0.62
1.26 1.10 0.50 0.21 0.13 0.18 0.47 0.57 0.35 0.32 0.34 0.39 0.49 0.56 0.40 0.30 0.27 0.25 0.24 0.23 0.21 0.21 0.25 0.28 0.33 0.35 0.37 0.35 0.38 0.42 0.44 0.45 0.55 0.58 0.55 0.54 0.54 0.54 0.53 0.54 0.53 0.55 0.56 0.61
1.00 1.19 0.64 0.23 0.21 0.40 0.57 0.38 0.32 0.33 0.37 0.45 0.43 0.33 0.29 0.29 0.29 0.26 0.25 0.25 0.26 0.27 0.32 0.36 0.37 0.34 0.32 0.31 0.31 0.32 0.37 0.39 0.45 0.54 0.54 0.53 0.53 0.51 0.50 0.54 0.57 0.57 0.58 0.60
0.75 0.70 0.42 0.31 0.37 0.41 0.38 0.39 0.39 0.47 0.48 0.46 0.44 0.38 0.36 0.33 0.29 0.28 0.27 0.28 0.30 0.31 0.35 0.39 0.36 0.31 0.30 0.30 0.27 0.29 0.33 0.37 0.41 0.47 0.48 0.48 0.50 0.50 0.48 0.49 0.55 0.60 0.62 0.63
0.54 0.41 0.32 0.28 0.26 0.26 0.28 0.36 0.41 0.43 0.45 0.48 0.51 0.46 0.41 0.40 0.38 0.36 0.34 0.33 0.33 0.32 0.35 0.39 0.35 0.30 0.29 0.28 0.27 0.28 0.34 0.40 0.43 0.47 0.50 0.49 0.47 0.46 0.47 0.52 0.66 0.74 0.74 0.72
0.42 0.32 0.28 0.27 0.26 0.27 0.29 0.29 0.28 0.30 0.34 0.45 0.53 0.49 0.42 0.41 0.44 0.45 0.44 0.42 0.39 0.39 0.40 0.39 0.32 0.28 0.30 0.32 0.33 0.35 0.38 0.43 0.47 0.50 0.51 0.52 0.49 0.48 0.52 0.55 0.77 1.03 0.99 0.98
0.39 0.31 0.31 0.31 0.28 0.28 0.31 0.30 0.31 0.32 0.34 0.37 0.41 0.42 0.39 0.41 0.44 0.44 0.46 0.47 0.44 0.40 0.36 0.34 0.31 0.29 0.30 0.32 0.35 0.37 0.39 0.42 0.47 0.53 0.57 0.55 0.52 0.52 0.53 0.55 0.65 0.72 0.78 0.91
0.31 0.26 0.26 0.26 0.24 0.24 0.26 0.30 0.33 0.35 0.35 0.32 0.32 0.34 0.38 0.43 0.44 0.43 0.45 0.45 0.42 0.38 0.36 0.35 0.32 0.31 0.32 0.34 0.37 0.39 0.41 0.44 0.48 0.51 0.54 0.56 0.57 0.56 0.55 0.53 0.54 0.57 0.61 0.69
0.23 0.22 0.24 0.21 0.22 0.21 0.23 0.25 0.28 0.31 0.31 0.28 0.28 0.29 0.33 0.38 0.39 0.37 0.38 0.39 0.37 0.35 0.34 0.33 0.31 0.32 0.33 0.33 0.37 0.41 0.44 0.48 0.51 0.53 0.55 0.55 0.57 0.58 0.57 0.56 0.57 0.57 0.56 0.60
0.18 0.21 0.26 0.22 0.19 0.20 0.21 0.21 0.23 0.25 0.25 0.25 0.25 0.27 0.30 0.33 0.37 0.38 0.37 0.33 0.31 0.31 0.32 0.30 0.29 0.31 0.31 0.31 0.34 0.37 0.40 0.43 0.47 0.51 0.54 0.55 0.57 0.59 0.58 0.57 0.58 0.59 0.59 0.62
0.19 0.20 0.21 0.21 0.23 0.25 0.24 0.22 0.24 0.25 0.24 0.24 0.25 0.26 0.28 0.29 0.30 0.31 0.31 0.29 0.27 0.31 0.32 0.31 0.30 0.31 0.31 0.32 0.34 0.36 0.38 0.45 0.50 0.51 0.53 0.55 0.58 0.60 0.62 0.63 0.63 0.61 0.63 0.69
0.23 0.23 0.24 0.27 0.28 0.30 0.31 0.31 0.28 0.26 0.21 0.20 0.21 0.22 0.22 0.22 0.23 0.24 0.26 0.28 0.27 0.29 0.31 0.32 0.32 0.30 0.30 0.32 0.37 0.39 0.41 0.45 0.51 0.51 0.52 0.56 0.60 0.65 0.67 0.70 0.71 0.67 0.64 0.68
0.28 0.30 0.33 0.36 0.37 0.35 0.33 0.30 0.27 0.24 0.22 0.21 0.20 0.21 0.21 0.22 0.23 0.23 0.24 0.25 0.25 0.26 0.28 0.31 0.33 0.29 0.28 0.32 0.40 0.43 0.46 0.50 0.52 0.54 0.55 0.59 0.65 0.67 0.69 0.71 0.71 0.68 0.64 0.64
0.26 0.29 0.31 0.34 0.35 0.36 0.35 0.31 0.28 0.27 0.26 0.24 0.24 0.25 0.25 0.25 0.26 0.26 0.25 0.25 0.24 0.26 0.28 0.28 0.30 0.27 0.27 0.32 0.45 0.48 0.52 0.55 0.55 0.54 0.56 0.64 0.65 0.61 0.64 0.68 0.69 0.66 0.63 0.64
0.28 0.28 0.30 0.32 0.32 0.33 0.32 0.29 0.26 0.26 0.27 0.27 0.28 0.29 0.29 0.30 0.30 0.30 0.29 0.29 0.30 0.33 0.29 0.28 0.28 0.29 0.33 0.39 0.51 0.56 0.58 0.60 0.61 0.59 0.59 0.61 0.62 0.61 0.63 0.65 0.67 0.68 0.66 0.67
0.32 0.31 0.31 0.31 0.30 0.28 0.28 0.26 0.24 0.25 0.26 0.27 0.27 0.30 0.31 0.32 0.32 0.31 0.30 0.31 0.33 0.32 0.30 0.31 0.32 0.41 0.49 0.58 0.61 0.60 0.60 0.62 0.64 0.65 0.65 0.66 0.66 0.63 0.63 0.65 0.68 0.69 0.69 0.69
0.32 0.33 0.33 0.31 0.28 0.28 0.28 0.27 0.26 0.25 0.26 0.27 0.28 0.30 0.32 0.33 0.32 0.32 0.33 0.36 0.39 0.40 0.36 0.35 0.44 0.62 0.67 0.68 0.61 0.60 0.59 0.58 0.60 0.63 0.67 0.70 0.73 0.72 0.69 0.70 0.74 0.72 0.71 0.73
0.32 0.34 0.35 0.33 0.31 0.30 0.29 0.29 0.28 0.28 0.29 0.29 0.30 0.32 0.34 0.36 0.35 0.37 0.44 0.43 0.42 0.44 0.41 0.42 0.54 0.64 0.66 0.61 0.57 0.57 0.58 0.59 0.61 0.64 0.68 0.73 0.76 0.79 0.80 0.79 0.77 0.78 0.79 0.79
0.37 0.38 0.38 0.36 0.32 0.29 0.31 0.33 0.31 0.31 0.32 0.33 0.35 0.36 0.36 0.37 0.39 0.40 0.45 0.46 0.44 0.43 0.42 0.47 0.54 0.57 0.56 0.54 0.55 0.57 0.60 0.64 0.70 0.71 0.72 0.74 0.76 0.79 0.82 0.84 0.84 0.80 0.80 0.81
0.42 0.41 0.39 0.36 0.33 0.34 0.36 0.35 0.33 0.33 0.32 0.34 0.37 0.37 0.37 0.38 0.43 0.45 0.43 0.43 0.43 0.42 0.43 0.46 0.49 0.50 0.49 0.51 0.55 0.59 0.64 0.71 0.79 0.82 0.82 0.80 0.78 0.79 0.81 0.83 0.87 0.88 0.85 0.84
0.46 0.45 0.43 0.40 0.38 0.37 0.37 0.36 0.37 0.37 0.35 0.35 0.37 0.37 0.36 0.37 0.39 0.40 0.42 0.43 0.43 0.43 0.43 0.44 0.44 0.47 0.49 0.52 0.55 0.59 0.65 0.70 0.73 0.72 0.71 0.74 0.74 0.76 0.79 0.83 0.86 0.88 0.88 0.85
0.45 0.43 0.38 0.36 0.35 0.34 0.35 0.34 0.36 0.39 0.38 0.37 0.38 0.36 0.34 0.33 0.34 0.36 0.38 0.40 0.43 0.43 0.44 0.46 0.47 0.49 0.51 0.52 0.55 0.59 0.63 0.66 0.70 0.73 0.72 0.73 0.73 0.76 0.78 0.83 0.86 0.86 0.86 0.85